This is the latest recevied weather packets stored in our database for station/object KD0SBN-3. If no packets are shown the sender has not sent any weather packets the latest 10 day(s).
| Time | Temp. | Humidity | Pressure | Rain* | Wind** | Luminosity | Snow |
|---|---|---|---|---|---|---|---|
| 1777692020 | 0° C | 95% | 1029.3 hPa | 0 mm | - | 0 W/m² | - |
| 1777691718 | 0° C | 95% | 1029.2 hPa | 0 mm | - | 0 W/m² | - |
| 1777691416 | 0° C | 96% | 1028.9 hPa | 0 mm | - | 0 W/m² | - |
| 1777691114 | 0° C | 96% | 1029.2 hPa | 0 mm | - | 0 W/m² | - |
| 1777690812 | 0° C | 96% | 1028.9 hPa | 0 mm | - | 0 W/m² | - |
| 1777690509 | 0° C | 96% | 1028.9 hPa | 0 mm | - | 0 W/m² | - |
| 1777690207 | 0° C | 96% | 1028.8 hPa | 0 mm | - | 0 W/m² | - |
| 1777689904 | 0° C | 96% | 1028.9 hPa | 0 mm | - | 0 W/m² | - |
| 1777689603 | 0° C | 96% | 1028.8 hPa | 0 mm | - | 0 W/m² | - |
| 1777689299 | 0° C | 96% | 1028.7 hPa | 0 mm | - | 0 W/m² | - |
| 1777688997 | 0° C | 96% | 1028.8 hPa | 0 mm | - | 0 W/m² | - |
| 1777688693 | 0° C | 96% | 1028.8 hPa | 0 mm | - | 0 W/m² | - |
| 1777688390 | 0° C | 95% | 1028.3 hPa | 0 mm | - | 0 W/m² | - |
| 1777688088 | 0° C | 95% | 1028.5 hPa | 0 mm | - | 0 W/m² | - |
| 1777687784 | 0° C | 95% | 1028.3 hPa | 0 mm | - | 0 W/m² | - |
| 1777687483 | 0° C | 95% | 1028.4 hPa | 0 mm | - | 0 W/m² | - |
| 1777687179 | 0° C | 95% | 1028.7 hPa | 0 mm | - | 1 W/m² | - |
| 1777686877 | 0.56° C | 95% | 1028.3 hPa | 0 mm | - | 1 W/m² | - |
| 1777686573 | 0.56° C | 95% | 1028.5 hPa | 0 mm | - | 2 W/m² | - |
| 1777686270 | 0.56° C | 95% | 1028.3 hPa | 0 mm | - | 4 W/m² | - |
| 1777685967 | 0.56° C | 95% | 1028.1 hPa | 0 mm | - | 5 W/m² | - |
| 1777685662 | 0.56° C | 95% | 1028.4 hPa | 1.27 mm | - | 8 W/m² | - |
| 1777685359 | 1.11° C | 94% | 1028 hPa | 1.27 mm | - | 11 W/m² | - |
| 1777685057 | 1.11° C | 94% | 1028.1 hPa | 0 mm | - | 15 W/m² | - |
| 1777684754 | 1.11° C | 94% | 1028 hPa | 0 mm | - | 14 W/m² | - |
* Rain latest hour (hover to see other rain measurements)
** Current wind speed in m/s (hover to see current wind gust speed)